sat.trackr.live / text

‹ back to catalog

STARLINK-4413

NORAD 53207 · 2022-084U

PAYLOAD ACTIVE UNKNOWN

§ Identity

Operator
Country
US
Launch date
2022-07-22
Launch site
AFWTR
Launch vehicle
Mass (kg)
RCS (m²)

Purposes: comms

External: N2YO · Heavens-Above · Gunter

§ Orbital elements

Epoch: 2026-09-19T22:20:52.618848Z

Period
93.91 min
Inclination
97.2845°
Eccentricity
0.0001358
Mean motion
15.33437392 rev/d
Perigee alt
464.6 km
Apogee alt
466.5 km
Semi-major
6,843.7 km
B*
4.1826e-5
RAAN
317.7439°
Arg perigee
104.4826°
Mean anomaly
255.6568°
Rev number
22,860

§ Raw data

STARLINK-44131 53207U 22084U   26262.93116457  .00001275  00000+0  41826-4 0  99962 53207  97.2845 317.7439 0001358 104.4826 255.6568 15.33437392228605

JSON: /api/v1/satellites/53207 · /tle

For live sub-satellite position, see the globe view (requires WebGL).

§ Visibility from observer

Set your observer location to see the next 7 days of passes ≥ 10°. The values pass through the URL so the page stays shareable.

No JS? Fill the form by hand. The geolocation button needs JavaScript.